This demonstration page uses our WeatherBlox Daily Observations layout. Learn more.

Left ArrowRight Arrow

41.86663, -103.66717

Hourly Observations for March 30, 2016

Temp ( °F °C ) Dew Point ( °F °C ) Humidity (%) Winds ( mph kmh ) Pressure ( in mb ) Visibility ( mi km ) Precip ( " mm )
12:13 am 00:13 Mostly Cloudy 41 5 39 3.9 93 93 W 14 22 29.68 1005 10 16 N/A
12:53 am 00:53 Cloudy 41 5 38 3.3 89 89 W 16 26 29.63 1004 10 16 N/A
1:53 am 01:53 Cloudy 38 3.3 35 1.7 89 89 WNW 20 31 29.60 1002 10 16 N/A
2:48 am 02:48 Cloudy 37 3 36 2 93 93 WNW 16 26 29.68 1005 10 16 N/A
2:53 am 02:53 Cloudy 37 2.8 35 1.7 93 93 WNW 16 26 29.59 1002 10 16 N/A
3:53 am 03:53 Cloudy 37 2.8 34 1.1 89 89 WNW 12 19 29.60 1002 10 16 N/A
4:53 am 04:53 Cloudy with Light Rain 37 2.8 34 1.1 89 89 WNW 14 22 29.60 1002 10 16 N/A
5:10 am 05:10 Cloudy with Light Rain 36 2 34 1 93 93 W 16 26 29.71 1006 10 16 N/A
5:25 am 05:25 Cloudy with Rain 35 1.7 33 0.6 93 93 W 15 24 29.74 1007 7 11 0.02 0.51
5:53 am 05:53 Cloudy with Light Snow 34 1.1 32 undefined 92 92 W 16 26 29.62 1003 3 4 0.09 2.29
6:04 am 06:04 Cloudy with Light Snow 34 1 32 undefined 93 93 WNW 13 20 29.74 1007 2 3 N/A
6:12 am 06:12 Cloudy with Light Snow 34 1 32 undefined 93 93 WNW 16 26 29.74 1007 3 4 N/A
6:31 am 06:31 Cloudy with Light Snow 33 0.6 32 undefined 96 96 WNW 14 22 29.77 1008 2 2 0.05 1.27
6:45 am 06:45 Cloudy with Light Snow 33 0.6 32 undefined 96 96 WNW 13 20 29.77 1008 1 2 0.07 1.78
6:53 am 06:53 Cloudy with Light Snow 33 0.6 32 undefined 96 96 WNW 14 22 29.65 1004 2 2 0.08 2.03
7:08 am 07:08 Cloudy with Light Snow 34 1 32 undefined 93 93 WNW 13 20 29.74 1007 1 2 N/A
7:30 am 07:30 Cloudy with Light Snow 34 1 32 undefined 93 93 WNW 12 19 29.80 1009 1 2 N/A
7:53 am 07:53 Cloudy with Light Snow 33 0.6 32 undefined 96 96 NW 12 19 29.67 1005 1 2 0.06 1.52
7:59 am 07:59 Cloudy with Light Snow 33 0.6 32 undefined 96 96 NW 10 17 29.80 1009 2 3 0.01 0.25
8:53 am 08:53 Cloudy with Light Snow 34 1.1 32 undefined 92 92 NW 9 15 29.69 1005 3 4 0.03 0.76
9:01 am 09:01 Cloudy with Light Snow 34 1.1 32 undefined 92 92 NNW 10 17 29.80 1009 4 6 N/A
9:30 am 09:30 Cloudy with Light Snow 34 1.1 32 undefined 92 92 N 10 17 29.80 1009 2 3 0.01 0.25
9:36 am 09:36 Cloudy with Light Snow 34 1 32 undefined 93 93 NNW 12 19 29.80 1009 2 3 N/A
9:53 am 09:53 Cloudy with Light Snow 34 1.1 32 undefined 92 92 NNW 9 15 29.70 1006 1 2 0.04 1.02
10:14 am 10:14 Cloudy with Light Snow 34 1 32 undefined 93 93 N 14 22 29.80 1009 3 4 N/A
10:16 am 10:16 Cloudy with Light Snow 34 1 32 undefined 93 93 N 12 19 29.80 1009 4 6 N/A
10:53 am 10:53 Cloudy with Light Snow 35 1.7 32 undefined 89 89 N 12 19 29.72 1006 5 8 0.02 0.51
11:00 am 11:00 Cloudy with Light Snow 36 2 32 undefined 87 87 N 13 20 29.77 1008 2 3 N/A
11:22 am 11:22 Cloudy with Light Snow 34 1 32 undefined 93 93 NNW 9 15 29.80 1009 2 3 N/A
11:30 am 11:30 Cloudy with Light Snow 34 1 32 undefined 93 93 NNW 9 15 29.80 1009 2 3 N/A
11:39 am 11:39 Cloudy with Light Snow 35 1.7 32 undefined 89 89 NNW 8 13 29.77 1008 2 2 0.05 1.27
11:53 am 11:53 Cloudy with Light Snow 34 1.1 32 undefined 92 92 N 13 20 29.73 1007 1 1 0.06 1.52
11:59 am 11:59 Cloudy with Light Snow 34 1.1 32 undefined 92 92 N 10 17 29.80 1009 1 2 0.01 0.25
12:21 pm 12:21 Cloudy with Light Snow 34 1.1 32 undefined 92 92 N 13 20 29.80 1009 3 5 0.02 0.51
12:37 pm 12:37 Cloudy with Light Snow 35 1.7 32 undefined 89 89 N 12 19 29.77 1008 2 3 0.03 0.76
12:53 pm 12:53 Cloudy with Light Snow 35 1.7 32 undefined 89 89 NNW 8 13 29.74 1007 3 4 0.04 1.02
1:05 pm 13:05 Cloudy with Light Snow 34 1.1 32 undefined 92 92 N 12 19 29.80 1009 2 2 0.01 0.25
1:53 pm 13:53 Cloudy with Light Snow 34 1.1 32 undefined 92 92 NNW 8 13 29.75 1008 1 2 0.04 1.02
2:09 pm 14:09 Cloudy with Light Snow 34 1.1 32 undefined 92 92 NNW 9 15 29.80 1009 2 3 0.01 0.25
2:15 pm 14:15 Cloudy with Light Snow 35 1.7 32 undefined 89 89 NNW 9 15 29.80 1009 3 5 0.02 0.51
2:53 pm 14:53 Cloudy with Light Snow 35 1.7 32 undefined 89 89 N 14 22 29.78 1008 3 5 0.03 0.76
3:08 pm 15:08 Cloudy with Light Snow 36 2 32 undefined 87 87 N 17 28 29.80 1009 3 4 N/A
3:20 pm 15:20 Cloudy with Light Snow 34 1.1 32 undefined 92 92 N 13 20 29.83 1010 1 2 0.03 0.76
3:30 pm 15:30 Cloudy with Light Snow 34 1 34 1 100 100 NNW 10 17 29.85 1011 1 2 N/A
3:37 pm 15:37 Mostly Cloudy with Snow 33 0.6 33 0.6 100 100 NNW 13 20 29.85 1011 1 1 0.06 1.52
3:53 pm 15:53 Mostly Cloudy with Snow 33 0.6 33 0.6 100 100 NW 13 20 29.80 1009 1 1 0.09 2.29
4:19 pm 16:19 Cloudy with Light Snow 34 1.1 33 0.6 97 97 NNW 14 22 29.85 1011 1 2 0.04 1.02
4:27 pm 16:27 Cloudy with Light Snow 34 1.1 33 0.6 97 97 NNW 14 22 29.85 1011 2 3 0.04 1.02
4:53 pm 16:53 Cloudy with Light Snow 34 1.1 33 0.6 97 97 NW 14 22 29.82 1010 2 2 0.05 1.27
5:10 pm 17:10 Cloudy with Light Snow 34 1 34 1 100 100 WNW 13 20 29.88 1012 1 2 N/A
5:18 pm 17:18 Cloudy with Light Snow 34 1 34 1 100 100 NW 13 20 29.88 1012 2 3 N/A
5:30 pm 17:30 Cloudy with Light Snow 34 1 32 undefined 93 93 NNW 15 24 29.88 1012 3 5 N/A
5:37 pm 17:37 Cloudy with Light Snow 34 1.1 32 undefined 92 92 NNW 15 24 29.88 1012 2 3 0.02 0.51
5:45 pm 17:45 Cloudy with Light Snow 34 1.1 33 0.6 97 97 NW 12 19 29.88 1012 2 3 0.02 0.51
5:53 pm 17:53 Mostly Cloudy with Light Snow 33 0.6 32 undefined 96 96 NW 12 19 29.85 1011 1 1 0.03 0.76
6:05 pm 18:05 Cloudy with Light Snow 33 0.6 33 0.6 100 100 WNW 12 19 29.88 1012 1 1 0.01 0.25
6:14 pm 18:14 Cloudy with Light Snow 34 1 32 undefined 93 93 NW 16 26 29.88 1012 1 2 N/A
6:34 pm 18:34 Cloudy with Light Snow 34 1 34 1 100 100 NW 13 20 29.88 1012 1 2 N/A
6:51 pm 18:51 Cloudy with Light Snow 34 1 34 1 100 100 W 7 11 29.88 1012 2 2 0.04 1.02
6:53 pm 18:53 Cloudy with Light Snow 33 0.6 32 undefined 96 96 W 7 11 29.86 1011 2 3 0.04 1.02
7:01 pm 19:01 Cloudy with Light Snow 33 0.6 32 undefined 96 96 WSW 7 11 29.88 1012 3 4 N/A
7:12 pm 19:12 Cloudy with Light Snow 34 1 32 undefined 93 93 W 8 13 29.88 1012 3 5 N/A
7:24 pm 19:24 Cloudy with Light Snow 34 1 32 undefined 93 93 W 8 13 29.88 1012 4 6 N/A
7:42 pm 19:42 Cloudy 34 1 32 undefined 93 93 W 7 11 29.88 1012 10 16 N/A
7:53 pm 19:53 Cloudy 34 1.1 32 undefined 92 92 W 8 13 29.85 1011 10 16 N/A
8:53 pm 20:53 Cloudy 34 1.1 32 undefined 92 92 WNW 12 19 29.85 1011 10 16 N/A
9:53 pm 21:53 Cloudy 34 1.1 32 undefined 92 92 NW 9 15 29.84 1011 10 16 N/A
10:53 pm 22:53 Cloudy 35 1.7 32 undefined 89 89 WNW 9 15 29.81 1010 10 16 N/A
11:53 pm 23:53 Cloudy 35 1.7 31 -0.6 85 85 NW 14 22 29.80 1009 10 16 N/A

Powered by AerisWeather